,,,PA_Meas_PMT16A,,PR_Meas_QMR101_102,,RH_Meas_QMH101,,SR_Meas_QMS101,,TA_Meas_QMH101,,GenWind,,GenWind,
date,time,status,PA,status,PR,status,RH,status,SR,status,TA,status,DirAvg,status,SpdAvg,
2011-09-18, 00:00:04,VALID,1005.73,VALID,0,INVALID,163.792,VALID,0,VALID,23.4098,VALID,13,VALID,0,
2011-09-18, 00:01:04,VALID,1005.71,VALID,0,INVALID,163.784,VALID,0,VALID,23.4116,VALID,13,VALID,0,
2011-09-18, 00:02:04,VALID,1005.71,VALID,0,INVALID,163.83,VALID,0,VALID,23.3709,VALID,13,VALID,0,
2011-09-18, 00:03:04,VALID,1005.73,VALID,0,INVALID,163.823,VALID,0,VALID,23.3514,VALID,13,VALID,0,
2011-09-18, 00:04:04,VALID,1005.73,VALID,0,INVALID,163.83,VALID,0,VALID,23.332,VALID,13,VALID,0,
2011-09-18, 00:05:04,VALID,1005.73,VALID,0,INVALID,163.8,VALID,0,VALID,23.3125,VALID,13,VALID,0,
2011-09-18, 00:06:04,VALID,1005.74,VALID,0,INVALID,163.8,VALID,0,VALID,23.3337,VALID,13,VALID,0,
2011-09-18, 00:07:04,VALID,1005.72,VALID,0,INVALID,163.8,VALID,0,VALID,23.3143,VALID,13,VALID,0,
2011-09-18, 00:08:04,VALID,1005.71,VALID,0,INVALID,163.8,VALID,0,VALID,23.2736,VALID,13,VALID,0,
2011-09-18, 00:09:04,VALID,1005.68,VALID,0,INVALID,163.838,VALID,0,VALID,23.2948,VALID,13,VALID,0,
2011-09-18, 00:10:04,VALID,1005.65,VALID,0,INVALID,163.815,VALID,0,VALID,23.2736,VALID,13,VALID,0,
2011-09-18, 00:11:04,VALID,1005.62,VALID,0,INVALID,163.815,VALID,0,VALID,23.2948,VALID,13,VALID,0,
2011-09-18, 00:12:04,VALID,1005.59,VALID,0,INVALID,163.845,VALID,0,VALID,23.2736,VALID,13,VALID,0,
2011-09-18, 00:13:04,VALID,1005.61,VALID,0,INVALID,163.83,VALID,0,VALID,23.3143,VALID,13,VALID,0,
2011-09-18, 00:14:04,VALID,1005.62,VALID,0,INVALID,163.807,VALID,0,VALID,23.2931,VALID,13,VALID,0,
2011-09-18, 00:15:04,VALID,1005.59,VALID,0,INVALID,163.845,VALID,0,VALID,23.2931,VALID,13,VALID,0,
2011-09-18, 00:16:04,VALID,1005.6,VALID,0,INVALID,163.807,VALID,0,VALID,23.3532,VALID,13,VALID,0,
2011-09-18, 00:17:04,VALID,1005.56,VALID,0,INVALID,163.807,VALID,0,VALID,23.3532,VALID,13,VALID,0,
2011-09-18, 00:18:04,VALID,1005.56,VALID,0,INVALID,163.815,VALID,0,VALID,23.3727,VALID,13,VALID,0,
2011-09-18, 00:19:04,VALID,1005.56,VALID,0,INVALID,163.838,VALID,0,VALID,23.3727,VALID,13,VALID,0,
2011-09-18, 00:20:04,VALID,1005.51,VALID,0,INVALID,163.807,VALID,0,VALID,23.3709,VALID,13,VALID,0,
2011-09-18, 00:21:04,VALID,1005.51,VALID,0,INVALID,163.807,VALID,0,VALID,23.3727,VALID,13,VALID,0,
2011-09-18, 00:22:04,VALID,1005.45,VALID,0,INVALID,163.815,VALID,0,VALID,23.332,VALID,6,VALID,0,
2011-09-18, 00:23:04,VALID,1005.44,VALID,0,INVALID,163.838,VALID,0,VALID,23.3125,VALID,3,VALID,0,
2011-09-18, 00:24:04,VALID,1005.44,VALID,0,INVALID,163.823,VALID,0,VALID,23.3143,VALID,360,VALID,0,
2011-09-18, 00:25:04,VALID,1005.42,VALID,0,INVALID,163.838,VALID,0,VALID,23.3143,VALID,360,VALID,0,
2011-09-18, 00:26:04,VALID,1005.36,VALID,0,INVALID,163.823,VALID,0,VALID,23.2931,VALID,360,VALID,0,
2011-09-18, 00:27:04,VALID,1005.36,VALID,0,INVALID,163.815,VALID,0,VALID,23.2931,VALID,360,VALID,0,
2011-09-18, 00:28:04,VALID,1005.34,VALID,0,INVALID,163.815,VALID,0,VALID,23.2931,VALID,360,VALID,0,
2011-09-18, 00:29:04,VALID,1005.3,VALID,0,INVALID,163.8,VALID,0,VALID,23.2541,VALID,360,VALID,0,
2011-09-18, 00:30:04,VALID,1005.27,VALID,0,INVALID,163.823,VALID,0,VALID,23.2541,VALID,360,VALID,0,
2011-09-18, 00:31:04,VALID,1005.23,VALID,0,INVALID,163.823,VALID,0,VALID,23.2559,VALID,359,VALID,0,
2011-09-18, 00:32:04,VALID,1005.22,VALID,0,INVALID,163.8,VALID,0,VALID,23.2541,VALID,359,VALID,0,
2011-09-18, 00:33:04,VALID,1005.15,VALID,0,INVALID,163.815,VALID,0,VALID,23.2347,VALID,357,VALID,0,
2011-09-18, 00:34:04,VALID,1005.16,VALID,0,INVALID,163.845,VALID,0,VALID,23.1957,VALID,357,VALID,0,
2011-09-18, 00:35:04,VALID,1005.12,VALID,0,INVALID,163.83,VALID,0,VALID,23.2364,VALID,357,VALID,0,
2011-09-18, 00:36:04,VALID,1005.07,VALID,0,INVALID,163.83,VALID,0,VALID,23.217,VALID,351,VALID,0,
2011-09-18, 00:37:04,VALID,1005.07,VALID,0,INVALID,163.853,VALID,0,VALID,23.1763,VALID,349,VALID,0,
2011-09-18, 00:38:04,VALID,1005.04,VALID,0,INVALID,163.815,VALID,0,VALID,23.1763,VALID,339,VALID,0,
2011-09-18, 00:39:04,VALID,1005.04,VALID,0,INVALID,163.815,VALID,0,VALID,23.1763,VALID,339,VALID,0,
2011-09-18, 00:40:04,VALID,1005.03,VALID,0,INVALID,163.823,VALID,0,VALID,23.2152,VALID,339,VALID,0,
2011-09-18, 00:41:04,VALID,1005.03,VALID,0,INVALID,163.8,VALID,0,VALID,23.2152,VALID,355,VALID,0,
2011-09-18, 00:42:04,VALID,1005.03,VALID,0,INVALID,163.823,VALID,0,VALID,23.2347,VALID,360,VALID,0,
2011-09-18, 00:43:04,VALID,1005.02,VALID,0,INVALID,163.8,VALID,0,VALID,23.2736,VALID,5,VALID,0,
2011-09-18, 00:44:04,VALID,1005.02,VALID,0,INVALID,163.807,VALID,0,VALID,23.2931,VALID,9,VALID,0,
2011-09-18, 00:45:04,VALID,1005.05,VALID,0,INVALID,163.838,VALID,0,VALID,23.332,VALID,17,VALID,0,
2011-09-18, 00:46:04,VALID,1005.01,VALID,0,INVALID,163.807,VALID,0,VALID,23.3532,VALID,13,VALID,0,
2011-09-18, 00:47:04,VALID,1005.01,VALID,0,INVALID,163.807,VALID,0,VALID,23.332,VALID,7,VALID,0,
2011-09-18, 00:48:04,VALID,1004.99,VALID,0,INVALID,163.815,VALID,0,VALID,23.3337,VALID,6,VALID,0,
2011-09-18, 00:49:04,VALID,1004.99,VALID,0,INVALID,163.815,VALID,0,VALID,23.3107,VALID,360,VALID,0,
2011-09-18, 00:50:04,VALID,1004.96,VALID,0,INVALID,163.823,VALID,0,VALID,23.332,VALID,359,VALID,0,
2011-09-18, 00:51:04,VALID,1004.95,VALID,0,INVALID,163.792,VALID,0,VALID,23.332,VALID,355,VALID,0,
2011-09-18, 00:52:04,VALID,1004.96,VALID,0,INVALID,163.83,VALID,0,VALID,23.3532,VALID,353,VALID,0,
2011-09-18, 00:53:04,VALID,1004.94,VALID,0,INVALID,163.83,VALID,0,VALID,23.3532,VALID,344,VALID,0,
2011-09-18, 00:54:04,VALID,1004.91,VALID,0,INVALID,163.792,VALID,0,VALID,23.3532,VALID,358,VALID,0,
2011-09-18, 00:55:04,VALID,1004.91,VALID,0,INVALID,163.8,VALID,0,VALID,23.3514,VALID,359,VALID,0,
2011-09-18, 00:56:04,VALID,1004.93,VALID,0,INVALID,163.8,VALID,0,VALID,23.4098,VALID,359,VALID,0,
2011-09-18, 00:57:04,VALID,1004.94,VALID,0,INVALID,163.838,VALID,0,VALID,23.4098,VALID,359,VALID,0,
2011-09-18, 00:58:04,VALID,1004.95,VALID,0,INVALID,163.8,VALID,0,VALID,23.4098,VALID,359,VALID,0,
2011-09-18, 00:59:04,VALID,1004.94,VALID,0,INVALID,163.823,VALID,0,VALID,23.4098,VALID,359,VALID,0,
2011-09-18, 01:00:05,VALID,1004.93,VALID,0,INVALID,163.8,VALID,0,VALID,23.4311,VALID,356,VALID,0,
2011-09-18, 01:01:05,VALID,1004.93,VALID,0,INVALID,163.792,VALID,0.100563,VALID,23.447,VALID,355,VALID,0,
2011-09-18, 01:02:05,VALID,1004.93,VALID,0,INVALID,163.823,VALID,0.100563,VALID,23.4275,VALID,353,VALID,0,
2011-09-18, 01:03:05,VALID,1004.93,VALID,0,INVALID,163.792,VALID,0.100563,VALID,23.447,VALID,353,VALID,0,
2011-09-18, 01:04:05,VALID,1004.94,VALID,0,INVALID,163.784,VALID,0.100563,VALID,23.447,VALID,353,VALID,0,
2011-09-18, 01:05:05,VALID,1004.93,VALID,0,INVALID,163.792,VALID,0.100563,VALID,23.4487,VALID,356,VALID,0,
2011-09-18, 01:06:05,VALID,1004.93,VALID,0,INVALID,163.83,VALID,0.100563,VALID,23.408,VALID,356,VALID,0,
2011-09-18, 01:07:05,VALID,1004.93,VALID,0,INVALID,163.815,VALID,0.100563,VALID,23.4098,VALID,356,VALID,0,
2011-09-18, 01:08:05,VALID,1004.97,VALID,0,INVALID,163.815,VALID,0.100563,VALID,23.3479,VALID,356,VALID,0,
2011-09-18, 01:09:05,VALID,1004.96,VALID,0,INVALID,163.838,VALID,0.100563,VALID,23.3691,VALID,2,VALID,0,
2011-09-18, 01:10:05,VALID,1004.96,VALID,0,INVALID,163.823,VALID,0.201126,VALID,23.3497,VALID,13,VALID,0,
2011-09-18, 01:11:05,VALID,1004.96,VALID,0,INVALID,163.823,VALID,0.100563,VALID,23.3107,VALID,24,VALID,0,
2011-09-18, 01:12:05,VALID,1004.95,VALID,0,INVALID,163.8,VALID,0.100563,VALID,23.3302,VALID,24,VALID,0,
2011-09-18, 01:13:05,VALID,1004.95,VALID,0,INVALID,163.815,VALID,0.100563,VALID,23.3107,VALID,12,VALID,0,
2011-09-18, 01:14:05,VALID,1004.94,VALID,0,INVALID,163.815,VALID,0.100563,VALID,23.3107,VALID,5,VALID,0,
2011-09-18, 01:15:05,VALID,1004.92,VALID,0,INVALID,163.823,VALID,0.100563,VALID,23.3302,VALID,5,VALID,0,
2011-09-18, 01:16:05,VALID,1004.9,VALID,0,INVALID,163.815,VALID,0,VALID,23.332,VALID,5,VALID,0,
2011-09-18, 01:17:05,VALID,1004.92,VALID,0,INVALID,163.823,VALID,0,VALID,23.332,VALID,5,VALID,0,
2011-09-18, 01:18:05,VALID,1004.91,VALID,0,INVALID,163.838,VALID,0,VALID,23.3514,VALID,5,VALID,0,
2011-09-18, 01:19:05,VALID,1004.88,VALID,0,INVALID,163.815,VALID,0,VALID,23.332,VALID,5,VALID,0,
2011-09-18, 01:20:05,VALID,1004.85,VALID,0,INVALID,163.792,VALID,0,VALID,23.3532,VALID,5,VALID,0,
2011-09-18, 01:21:05,VALID,1004.82,VALID,0,INVALID,163.845,VALID,0,VALID,23.3125,VALID,349,VALID,0,
2011-09-18, 01:22:05,VALID,1004.81,VALID,0,INVALID,163.845,VALID,0,VALID,23.332,VALID,360,VALID,0,
2011-09-18, 01:23:05,VALID,1004.82,VALID,0,INVALID,163.823,VALID,0,VALID,23.3514,VALID,349,VALID,0,
2011-09-18, 01:24:05,VALID,1004.83,VALID,0,INVALID,163.815,VALID,0,VALID,23.3514,VALID,349,VALID,0,
2011-09-18, 01:25:05,VALID,1004.81,VALID,0,INVALID,163.823,VALID,0,VALID,23.3709,VALID,337,VALID,0,
2011-09-18, 01:26:05,VALID,1004.78,VALID,0,INVALID,163.815,VALID,0,VALID,23.3125,VALID,340,VALID,0,
2011-09-18, 01:27:05,VALID,1004.78,VALID,0,INVALID,163.823,VALID,0,VALID,23.332,VALID,340,VALID,0,
2011-09-18, 01:28:05,VALID,1004.77,VALID,0,INVALID,163.784,VALID,0,VALID,23.3514,VALID,340,VALID,0,
2011-09-18, 01:29:05,VALID,1004.73,VALID,0,INVALID,163.823,VALID,0,VALID,23.3514,VALID,340,VALID,0,
2011-09-18, 01:30:05,VALID,1004.74,VALID,0,INVALID,163.823,VALID,0,VALID,23.332,VALID,340,VALID,0,
2011-09-18, 01:31:05,VALID,1004.73,VALID,0,INVALID,163.823,VALID,0,VALID,23.2931,VALID,338,VALID,0,
2011-09-18, 01:32:05,VALID,1004.71,VALID,0,INVALID,163.807,VALID,0,VALID,23.3125,VALID,346,VALID,0,
2011-09-18, 01:33:05,VALID,1004.7,VALID,0,INVALID,163.823,VALID,0,VALID,23.332,VALID,352,VALID,0,
2011-09-18, 01:34:05,VALID,1004.68,VALID,0,INVALID,163.823,VALID,0,VALID,23.3143,VALID,352,VALID,0,
2011-09-18, 01:35:05,VALID,1004.67,VALID,0,INVALID,163.845,VALID,0,VALID,23.2931,VALID,351,VALID,0,
2011-09-18, 01:36:05,VALID,1004.67,VALID,0,INVALID,163.83,VALID,0,VALID,23.2931,VALID,351,VALID,0,
2011-09-18, 01:37:05,VALID,1004.66,VALID,0,INVALID,163.83,VALID,0,VALID,23.2931,VALID,351,VALID,0,
2011-09-18, 01:38:05,VALID,1004.66,VALID,0,INVALID,163.845,VALID,0,VALID,23.2931,VALID,351,VALID,0,
2011-09-18, 01:39:05,VALID,1004.66,VALID,0,INVALID,163.823,VALID,0,VALID,23.2931,VALID,351,VALID,0,
2011-09-18, 01:40:05,VALID,1004.62,VALID,0,INVALID,163.823,VALID,0,VALID,23.3125,VALID,351,VALID,0,
2011-09-18, 01:41:05,VALID,1004.64,VALID,0,INVALID,163.807,VALID,0,VALID,23.2718,VALID,352,VALID,0,
2011-09-18, 01:42:05,VALID,1004.61,VALID,0,INVALID,163.823,VALID,0,VALID,23.3125,VALID,352,VALID,0,
2011-09-18, 01:43:05,VALID,1004.61,VALID,0,INVALID,163.823,VALID,0,VALID,23.332,VALID,352,VALID,0,
2011-09-18, 01:44:05,VALID,1004.6,VALID,0,INVALID,163.815,VALID,0,VALID,23.2931,VALID,352,VALID,0,
2011-09-18, 01:45:05,VALID,1004.6,VALID,0,INVALID,163.823,VALID,0,VALID,23.2931,VALID,348,VALID,0,
2011-09-18, 01:46:05,VALID,1004.6,VALID,0,INVALID,163.838,VALID,0,VALID,23.2736,VALID,348,VALID,0,
2011-09-18, 01:47:05,VALID,1004.59,VALID,0,INVALID,163.815,VALID,0.100563,VALID,23.2524,VALID,348,VALID,0,
2011-09-18, 01:48:05,VALID,1004.57,VALID,0,INVALID,163.823,VALID,0,VALID,23.2736,VALID,348,VALID,0,
2011-09-18, 01:49:05,VALID,1004.55,VALID,0,INVALID,163.8,VALID,0,VALID,23.2736,VALID,340,VALID,0,
2011-09-18, 01:50:05,VALID,1004.53,VALID,0,INVALID,163.815,VALID,0,VALID,23.2736,VALID,341,VALID,0,
2011-09-18, 01:51:05,VALID,1004.51,VALID,0,INVALID,163.823,VALID,0,VALID,23.2736,VALID,353,VALID,0,
2011-09-18, 01:52:05,VALID,1004.5,VALID,0,INVALID,163.823,VALID,0,VALID,23.2931,VALID,357,VALID,0,
2011-09-18, 01:53:05,VALID,1004.49,VALID,0,INVALID,163.83,VALID,0,VALID,23.3125,VALID,346,VALID,0,
2011-09-18, 01:54:05,VALID,1004.45,VALID,0,INVALID,163.815,VALID,0,VALID,23.3514,VALID,347,VALID,0,
2011-09-18, 01:55:05,VALID,1004.46,VALID,0,INVALID,163.8,VALID,0,VALID,23.3904,VALID,339,VALID,0,
2011-09-18, 01:56:05,VALID,1004.47,VALID,0,INVALID,163.815,VALID,0,VALID,23.4098,VALID,303,VALID,0,
2011-09-18, 01:57:05,VALID,1004.5,VALID,0,INVALID,163.845,VALID,0,VALID,23.4098,VALID,310,VALID,0,
2011-09-18, 01:58:05,VALID,1004.48,VALID,0,INVALID,163.792,VALID,0,VALID,23.3886,VALID,336,VALID,0,
2011-09-18, 01:59:05,VALID,1004.48,VALID,0,INVALID,163.823,VALID,0,VALID,23.4487,VALID,318,VALID,0,
2011-09-18, 02:00:05,VALID,1004.49,VALID,0,INVALID,163.815,VALID,0,VALID,23.4487,VALID,290,VALID,0,
2011-09-18, 02:01:05,VALID,1004.49,VALID,0,INVALID,163.792,VALID,0,VALID,23.4682,VALID,349,VALID,0,
2011-09-18, 02:02:05,VALID,1004.46,VALID,0,INVALID,163.807,VALID,0,VALID,23.47,VALID,344,VALID,0,
2011-09-18, 02:03:05,VALID,1004.47,VALID,0,INVALID,163.815,VALID,0,VALID,23.4487,VALID,346,VALID,0,
2011-09-18, 02:04:05,VALID,1004.45,VALID,0,INVALID,163.8,VALID,0,VALID,23.4682,VALID,352,VALID,0,
2011-09-18, 02:05:05,VALID,1004.45,VALID,0,INVALID,163.792,VALID,0,VALID,23.4682,VALID,354,VALID,0,
2011-09-18, 02:06:05,VALID,1004.44,VALID,0,INVALID,163.784,VALID,0,VALID,23.47,VALID,352,VALID,0,
2011-09-18, 02:07:05,VALID,1004.44,VALID,0,INVALID,163.792,VALID,0,VALID,23.4293,VALID,349,VALID,0,
2011-09-18, 02:08:05,VALID,1004.44,VALID,0,INVALID,163.807,VALID,0,VALID,23.4293,VALID,360,VALID,0,
2011-09-18, 02:09:05,VALID,1004.43,VALID,0,INVALID,163.792,VALID,0,VALID,23.4293,VALID,347,VALID,0,
2011-09-18, 02:10:05,VALID,1004.43,VALID,0,INVALID,163.792,VALID,0,VALID,23.47,VALID,351,VALID,0,
2011-09-18, 02:11:05,VALID,1004.44,VALID,0,INVALID,163.792,VALID,0,VALID,23.47,VALID,351,VALID,0,
2011-09-18, 02:12:05,VALID,1004.47,VALID,0,INVALID,163.815,VALID,0,VALID,23.4718,VALID,350,VALID,0,
2011-09-18, 02:13:05,VALID,1004.49,VALID,0,INVALID,163.823,VALID,0,VALID,23.4487,VALID,359,VALID,0,
2011-09-18, 02:14:05,VALID,1004.49,VALID,0,INVALID,163.83,VALID,0,VALID,23.4682,VALID,352,VALID,0,
2011-09-18, 02:15:05,VALID,1004.52,VALID,0,INVALID,163.762,VALID,0,VALID,23.4894,VALID,360,VALID,0,
2011-09-18, 02:16:05,VALID,1004.52,VALID,0,INVALID,163.792,VALID,0,VALID,23.4894,VALID,357,VALID,0,
2011-09-18, 02:17:05,VALID,1004.52,VALID,0,INVALID,163.792,VALID,0,VALID,23.5089,VALID,335,VALID,0,
2011-09-18, 02:18:05,VALID,1004.52,VALID,0,INVALID,163.8,VALID,0,VALID,23.5089,VALID,343,VALID,0,
2011-09-18, 02:19:05,VALID,1004.52,VALID,0,INVALID,163.838,VALID,0,VALID,23.5284,VALID,358,VALID,0,
2011-09-18, 02:20:05,VALID,1004.5,VALID,0,INVALID,163.815,VALID,0,VALID,23.5089,VALID,360,VALID,0,
2011-09-18, 02:21:05,VALID,1004.5,VALID,0,INVALID,163.8,VALID,0,VALID,23.5089,VALID,360,VALID,0,
2011-09-18, 02:22:05,VALID,1004.49,VALID,0,INVALID,163.807,VALID,0,VALID,23.4682,VALID,345,VALID,0,
2011-09-18, 02:23:05,VALID,1004.48,VALID,0,INVALID,163.815,VALID,0,VALID,23.4894,VALID,344,VALID,0,
2011-09-18, 02:24:05,VALID,1004.46,VALID,0,INVALID,163.8,VALID,0,VALID,23.47,VALID,357,VALID,0,
2011-09-18, 02:25:05,VALID,1004.42,VALID,0,INVALID,163.815,VALID,0,VALID,23.47,VALID,348,VALID,0,
2011-09-18, 02:26:05,VALID,1004.48,VALID,0,INVALID,163.807,VALID,0,VALID,23.4894,VALID,339,VALID,0,
2011-09-18, 02:27:05,VALID,1004.43,VALID,0,INVALID,163.8,VALID,0,VALID,23.4682,VALID,349,VALID,0,
2011-09-18, 02:28:05,VALID,1004.42,VALID,0,INVALID,163.807,VALID,0,VALID,23.47,VALID,340,VALID,0,
2011-09-18, 02:29:05,VALID,1004.42,VALID,0,INVALID,163.792,VALID,0,VALID,23.4487,VALID,347,VALID,0,
2011-09-18, 02:30:05,VALID,1004.4,VALID,0,INVALID,163.807,VALID,0,VALID,23.4894,VALID,342,VALID,0,
2011-09-18, 02:31:05,VALID,1004.39,VALID,0,INVALID,163.807,VALID,0,VALID,23.4877,VALID,356,VALID,0,
2011-09-18, 02:32:05,VALID,1004.41,VALID,0,INVALID,163.823,VALID,0,VALID,23.4682,VALID,356,VALID,0,
2011-09-18, 02:33:05,VALID,1004.41,VALID,0,INVALID,163.784,VALID,0,VALID,23.4877,VALID,356,VALID,0,
2011-09-18, 02:34:05,VALID,1004.41,VALID,0,INVALID,163.838,VALID,0,VALID,23.4877,VALID,6,VALID,0,
2011-09-18, 02:35:05,VALID,1004.41,VALID,0,INVALID,163.784,VALID,0,VALID,23.5089,VALID,348,VALID,0,
2011-09-18, 02:36:05,VALID,1004.43,VALID,0,INVALID,163.823,VALID,0,VALID,23.4877,VALID,5,VALID,0,
2011-09-18, 02:37:05,VALID,1004.43,VALID,0,INVALID,163.777,VALID,0.100563,VALID,23.4859,VALID,4,VALID,0,
2011-09-18, 02:38:05,VALID,1004.45,VALID,0,INVALID,163.8,VALID,0,VALID,23.4859,VALID,342,VALID,0,
2011-09-18, 02:39:05,VALID,1004.45,VALID,0,INVALID,163.784,VALID,0,VALID,23.5071,VALID,342,VALID,0,
2011-09-18, 02:40:05,VALID,1004.45,VALID,0,INVALID,163.815,VALID,0,VALID,23.5266,VALID,342,VALID,0,
2011-09-18, 02:41:05,VALID,1004.42,VALID,0,INVALID,163.792,VALID,0,VALID,23.5266,VALID,342,VALID,0,
2011-09-18, 02:42:05,VALID,1004.4,VALID,0,INVALID,163.815,VALID,0,VALID,23.546,VALID,341,VALID,0,
2011-09-18, 02:43:05,VALID,1004.42,VALID,0,INVALID,163.792,VALID,0,VALID,23.5266,VALID,341,VALID,0,
2011-09-18, 02:44:05,VALID,1004.4,VALID,0,INVALID,163.807,VALID,0,VALID,23.5266,VALID,319,VALID,0,
2011-09-18, 02:45:05,VALID,1004.36,VALID,0,INVALID,163.8,VALID,0,VALID,23.5248,VALID,319,VALID,0,
2011-09-18, 02:46:05,VALID,1004.35,VALID,0,INVALID,163.815,VALID,0,VALID,23.5655,VALID,319,VALID,0,
2011-09-18, 02:47:05,VALID,1004.32,VALID,0,INVALID,163.815,VALID,0,VALID,23.585,VALID,319,VALID,0,
2011-09-18, 02:48:05,VALID,1004.31,VALID,0,INVALID,163.784,VALID,0,VALID,23.6044,VALID,318,VALID,0,
2011-09-18, 02:49:05,VALID,1004.29,VALID,0,INVALID,163.792,VALID,0,VALID,23.6026,VALID,318,VALID,0,
2011-09-18, 02:50:05,VALID,1004.26,VALID,0,INVALID,163.784,VALID,0,VALID,23.6026,VALID,318,VALID,0,
2011-09-18, 02:51:05,VALID,1004.26,VALID,0,INVALID,163.8,VALID,0,VALID,23.6239,VALID,348,VALID,0,
2011-09-18, 02:52:05,VALID,1004.26,VALID,0,INVALID,163.815,VALID,0,VALID,23.6221,VALID,351,VALID,0,
2011-09-18, 02:53:05,VALID,1004.25,VALID,0,INVALID,163.815,VALID,0,VALID,23.6628,VALID,348,VALID,0,
2011-09-18, 02:54:05,VALID,1004.25,VALID,0,INVALID,163.807,VALID,0,VALID,23.7017,VALID,345,VALID,0,
2011-09-18, 02:55:05,VALID,1004.23,VALID,0,INVALID,163.815,VALID,0,VALID,23.7212,VALID,345,VALID,0,
2011-09-18, 02:56:05,VALID,1004.19,VALID,0,INVALID,163.777,VALID,0,VALID,23.7,VALID,345,VALID,0,
2011-09-18, 02:57:05,VALID,1004.19,VALID,0,INVALID,163.777,VALID,0,VALID,23.7212,VALID,345,VALID,0,
2011-09-18, 02:58:05,VALID,1004.18,VALID,0,INVALID,163.792,VALID,0,VALID,23.7601,VALID,345,VALID,0,
2011-09-18, 02:59:05,VALID,1004.16,VALID,0,INVALID,163.784,VALID,0,VALID,23.7814,VALID,317,VALID,0,
2011-09-18, 03:00:05,VALID,1004.13,VALID,0,INVALID,163.762,VALID,0.100563,VALID,23.7796,VALID,317,VALID,0,
2011-09-18, 03:01:05,VALID,1004.13,VALID,0,INVALID,163.784,VALID,0,VALID,23.7796,VALID,317,VALID,0,
2011-09-18, 03:02:05,VALID,1004.14,VALID,0,INVALID,163.769,VALID,0,VALID,23.8203,VALID,317,VALID,0,
2011-09-18, 03:03:05,VALID,1004.16,VALID,0,INVALID,163.777,VALID,0,VALID,23.7991,VALID,317,VALID,0,
2011-09-18, 03:04:05,VALID,1004.17,VALID,0,INVALID,163.8,VALID,0,VALID,23.7991,VALID,317,VALID,0,
2011-09-18, 03:05:05,VALID,1004.19,VALID,0,INVALID,163.777,VALID,0,VALID,23.7991,VALID,325,VALID,0,
2011-09-18, 03:06:05,VALID,1004.17,VALID,0,INVALID,163.792,VALID,0,VALID,23.8185,VALID,11,VALID,0,
2011-09-18, 03:07:05,VALID,1004.16,VALID,0,INVALID,163.746,VALID,0,VALID,23.8185,VALID,11,VALID,0,
2011-09-18, 03:08:05,VALID,1004.17,VALID,0,INVALID,163.784,VALID,0,VALID,23.838,VALID,11,VALID,0,
2011-09-18, 03:09:05,VALID,1004.2,VALID,0,INVALID,163.792,VALID,0,VALID,23.8575,VALID,11,VALID,0,
2011-09-18, 03:10:05,VALID,1004.18,VALID,0,INVALID,163.739,VALID,0,VALID,23.8769,VALID,6,VALID,0,
2011-09-18, 03:11:05,VALID,1004.16,VALID,0,INVALID,163.769,VALID,0,VALID,23.8964,VALID,4,VALID,0,
2011-09-18, 03:12:05,VALID,1004.15,VALID,0,INVALID,163.754,VALID,0,VALID,23.8964,VALID,4,VALID,0,
2011-09-18, 03:13:05,VALID,1004.16,VALID,0,INVALID,163.784,VALID,0,VALID,23.9371,VALID,4,VALID,0,
2011-09-18, 03:14:05,VALID,1004.14,VALID,0,INVALID,163.777,VALID,0,VALID,23.9548,VALID,4,VALID,0,
2011-09-18, 03:15:05,VALID,1004.13,VALID,0,INVALID,163.769,VALID,0,VALID,23.9742,VALID,349,VALID,0,
2011-09-18, 03:16:05,VALID,1004.15,VALID,0,INVALID,163.769,VALID,0,VALID,23.9955,VALID,344,VALID,0,
2011-09-18, 03:17:05,VALID,1004.1,VALID,0,INVALID,163.769,VALID,0,VALID,23.9761,VALID,344,VALID,0,
2011-09-18, 03:18:05,VALID,1004.1,VALID,0,INVALID,163.762,VALID,0,VALID,23.9548,VALID,344,VALID,0,
2011-09-18, 03:19:05,VALID,1004.12,VALID,0,INVALID,163.762,VALID,0,VALID,23.9761,VALID,344,VALID,0,
2011-09-18, 03:20:05,VALID,1004.11,VALID,0,INVALID,163.754,VALID,0,VALID,24.0132,VALID,295,VALID,0,
2011-09-18, 03:21:05,VALID,1004.09,VALID,0,INVALID,163.762,VALID,0,VALID,24.0521,VALID,359,VALID,0,
2011-09-18, 03:22:05,VALID,1004.13,VALID,0,INVALID,163.762,VALID,0,VALID,24.0734,VALID,342,VALID,0,
2011-09-18, 03:23:05,VALID,1004.09,VALID,0,INVALID,163.754,VALID,0,VALID,24.0929,VALID,320,VALID,0,
2011-09-18, 03:24:05,VALID,1004.08,VALID,0,INVALID,163.731,VALID,0,VALID,24.1123,VALID,320,VALID,0,
2011-09-18, 03:25:05,VALID,1004.06,VALID,0,INVALID,163.746,VALID,0,VALID,24.0734,VALID,320,VALID,0,
2011-09-18, 03:26:05,VALID,1004.05,VALID,0,INVALID,163.754,VALID,0,VALID,24.0539,VALID,321,VALID,0,
2011-09-18, 03:27:05,VALID,1004.06,VALID,0,INVALID,163.754,VALID,0,VALID,24.0539,VALID,323,VALID,0,
2011-09-18, 03:28:05,VALID,1004.06,VALID,0,INVALID,163.769,VALID,0,VALID,24.0345,VALID,327,VALID,0,
2011-09-18, 03:29:05,VALID,1004.07,VALID,0,INVALID,163.769,VALID,0,VALID,24.015,VALID,327,VALID,0,
2011-09-18, 03:30:05,VALID,1004.04,VALID,0,INVALID,163.746,VALID,0,VALID,24.0132,VALID,327,VALID,0,
2011-09-18, 03:31:05,VALID,1004.03,VALID,0,INVALID,163.777,VALID,0,VALID,24.0539,VALID,349,VALID,0,
2011-09-18, 03:32:05,VALID,1003.99,VALID,0,INVALID,163.777,VALID,0,VALID,24.0716,VALID,345,VALID,0,
2011-09-18, 03:33:05,VALID,1004.02,VALID,0,INVALID,163.762,VALID,0,VALID,24.1123,VALID,283,VALID,0,
2011-09-18, 03:34:05,VALID,1004.01,VALID,0,INVALID,163.746,VALID,0,VALID,24.1318,VALID,348,VALID,0,
2011-09-18, 03:35:04,VALID,1004.01,VALID,0,INVALID,163.777,VALID,0,VALID,24.1105,VALID,346,VALID,0,
2011-09-18, 03:36:04,VALID,1004.01,VALID,0,INVALID,163.777,VALID,0,VALID,24.1513,VALID,329,VALID,0,
2011-09-18, 03:37:04,VALID,1004.02,VALID,0,INVALID,163.762,VALID,0,VALID,24.13,VALID,330,VALID,0,
2011-09-18, 03:38:04,VALID,1004.03,VALID,0,INVALID,163.754,VALID,0,VALID,24.1105,VALID,346,VALID,0,
2011-09-18, 03:39:04,VALID,1004.03,VALID,0,INVALID,163.777,VALID,0,VALID,24.091,VALID,347,VALID,0,
2011-09-18, 03:40:04,VALID,1004.06,VALID,0,INVALID,163.754,VALID,0,VALID,24.1318,VALID,347,VALID,0,
2011-09-18, 03:41:04,VALID,1004.07,VALID,0,INVALID,163.762,VALID,0,VALID,24.1318,VALID,349,VALID,0,
2011-09-18, 03:42:04,VALID,1004.09,VALID,0,INVALID,163.746,VALID,0,VALID,24.13,VALID,350,VALID,0,
2011-09-18, 03:43:04,VALID,1004.11,VALID,0,INVALID,163.746,VALID,0,VALID,24.1105,VALID,350,VALID,0,
2011-09-18, 03:44:04,VALID,1004.11,VALID,0,INVALID,163.754,VALID,0,VALID,24.1513,VALID,349,VALID,0,
2011-09-18, 03:45:04,VALID,1004.08,VALID,0,INVALID,163.754,VALID,0,VALID,24.1707,VALID,349,VALID,0,
2011-09-18, 03:46:04,VALID,1004.1,VALID,0,INVALID,163.739,VALID,0.100563,VALID,24.2078,VALID,349,VALID,0,
2011-09-18, 03:47:04,VALID,1004.13,VALID,0,INVALID,163.754,VALID,0,VALID,24.1671,VALID,349,VALID,0,
2011-09-18, 03:48:04,VALID,1004.15,VALID,0,INVALID,163.731,VALID,0.100563,VALID,24.2273,VALID,349,VALID,0,
2011-09-18, 03:49:04,VALID,1004.16,VALID,0,INVALID,163.739,VALID,0.100563,VALID,24.2273,VALID,349,VALID,0,
2011-09-18, 03:50:04,VALID,1004.18,VALID,0,INVALID,163.769,VALID,0,VALID,24.206,VALID,349,VALID,0,
2011-09-18, 03:51:04,VALID,1004.21,VALID,0,INVALID,163.746,VALID,0,VALID,24.1865,VALID,349,VALID,0,
2011-09-18, 03:52:04,VALID,1004.25,VALID,0,INVALID,163.754,VALID,0,VALID,24.1494,VALID,349,VALID,0,
2011-09-18, 03:53:04,VALID,1004.27,VALID,0,INVALID,163.754,VALID,0,VALID,24.1087,VALID,349,VALID,0,
2011-09-18, 03:54:04,VALID,1004.31,VALID,0,INVALID,163.754,VALID,0,VALID,24.13,VALID,349,VALID,0,
2011-09-18, 03:55:04,VALID,1004.37,VALID,0,INVALID,163.754,VALID,0,VALID,24.091,VALID,349,VALID,0,